Miscellaneous Local Product
Issued by NWS Hastings, NE

Home | Current Version | Previous Version | Graphics & Text | Print | Product List | Glossary On
Versions: 1 2 3 4 5 6 7 8 9 10 11 12 13 14 15 16 17 18 19 20 21 22 23 24 25 26 27 28 29 30 31 32 33 34 35 36 37 38 39 40 41 42 43 44 45 46 47 48 49 50
000
AXUS43 KGID 050802
MISGRI

GID CWA HOURLY WEATHER ROUNDUP
NATIONAL WEATHER SERVICE HASTINGS NE
300 AM CDT SUN JUL 05 2015

NOTE: "FAIR" INDICATES FEW OR NO CLOUDS BELOW 12,000 FEET WITH NO
SIGNIFICANT WEATHER AND/OR OBSTRUCTIONS TO VISIBILITY.

...SOUTH CENTRAL NEBRASKA...

CITY           SKY/WX    TMP DP  RH WIND       PRES   REMARKS
GRAND ISLAND   CLOUDY    72  63  73 S15G26    29.89F
HASTINGS       CLOUDY    72  63  73 S13       29.90F
KEARNEY        CLOUDY    72  61  68 S16       29.88F
ORD            CLOUDY    72  62  71 SE6       29.86F
YORK           MOCLDY    72  64  78 S15       29.93R
AURORA         CLOUDY    71  65  82 S13       29.90F
LEXINGTON      MOCLDY    75  64  69 S14       29.87F
HOLDREGE       MOCLDY    74  62  65 S15       29.89F
HEBRON         CLOUDY    72  62  72 SE10      29.92F

...NEBRASKA PANHANDLE...

CITY           SKY/WX    TMP DP  RH WIND       PRES   REMARKS
CHADRON        PTCLDY    69  62  78 CALM      29.82F
ALLIANCE       PTCLDY    72  64  76 E9        29.86F
SCOTTSBLUFF    MOCLDY    67  62  84 E9        29.87S
SIDNEY         MOCLDY    66  60  81 W6        29.91F

...WESTERN AND NORTH CENTRAL NEBRASKA...

CITY           SKY/WX    TMP DP  RH WIND       PRES   REMARKS
VALENTINE      CLOUDY    76  52  43 SW16      29.78F
AINSWORTH      CLOUDY    76  65  67 S14G22    29.83F
ONEILL         MOCLDY    72  64  78 S10       29.85F
BROKEN BOW     CLOUDY    74  63  68 SE8       29.88F
IMPERIAL       MOCLDY    74  61  63 S8        29.88S
NORTH PLATTE   PTCLDY    74  63  68 SE10      29.85F
MCCOOK         MOCLDY    75  64  68 SE9       29.86F

...EASTERN NEBRASKA...

CITY           SKY/WX    TMP DP  RH WIND       PRES   REMARKS
NORFOLK        MOCLDY    70  64  81 S13G22    29.88F
SO SIOUX CITY  MOCLDY    68  61  78 SE8       29.90F
TEKAMAH        PTCLDY    67  63  87 SE7       29.92F
COLUMBUS       PTCLDY    70  61  73 S10       29.88F
ALBION         PTCLDY    68  63  84 SE7       29.90S
OMAHA EPPLEY   PTCLDY    69  62  78 S9        29.93F
OFFUTT AFB     PTCLDY    65  61  89 E8        29.93F
MILLARD        PTCLDY    69  63  81 SE5       29.93F
LINCOLN        MOCLDY    70  64  81 S12       29.92F
NEBRASKA CITY  PTCLDY    67  61  80 S8        29.96S
BEATRICE       MOCLDY    70  64  80 S10       29.94F
FALLS CITY     CLEAR     67  63  87 SE8       29.95F

...NORTHERN KANSAS...

CITY           SKY/WX    TMP DP  RH WIND       PRES   REMARKS
GOODLAND       CLOUDY    72  62  71 S17       29.89F
NORTON         SUNNY     73  61  64 SE6       29.88S
PHILLIPSBURG   CLEAR     79  66  65 SE8       29.89F
SMITH CENTER   CLEAR     72  63  73 SE12      29.90F
HAYS           PTCLDY    75  63  64 S13       29.90F
RUSSELL        CLEAR     74  66  76 S16       29.90F
CONCORDIA      CLOUDY    73  64  73 SE10      29.93S
SALINA         MOCLDY    77  65  66 S12       29.93F
TOPEKA         CLEAR     70  65  84 E5        29.97F



USA.gov is the U.S. government's official web portal to all federal, state and local government web resources and services.